Regional Weather Roundup
Issued by NWS

Home | Current Version | Previous Version | Graphics & Text | Print | Product List | Glossary On
Versions: 1 2 3 4 5 6 7 8 9 10 11 12 13 14 15 16 17 18 19 20 21 22 23 24 25 26 27 28 29 30 31 32 33 34 35 36 37 38 39 40 41 42 43 44 45 46 47 48 49 50
000
ASUS43 KBIS 182302
RWRND

NORTH DAKOTA REGIONAL WEATHER ROUNDUP
NATIONAL WEATHER SERVICE BISMARCK ND
500 PM CST MON DEC 18 2017

NOTE: "FAIR" INDICATES FEW OR NO CLOUDS BELOW 12,000 FEET WITH NO
SIGNIFICANT WEATHER AND/OR OBSTRUCTIONS TO VISIBILITY.


NDZ001>003-009>011-017-190000-
NORTHWEST NORTH DAKOTA

CITY           SKY/WX    TMP DP  RH WIND       PRES   REMARKS
WILLISTON      CLOUDY    35  25  66 NW10      29.69R
MINOT          CLOUDY    36  31  82 W9        29.61R
MINOT AFB      CLOUDY    34  30  86 W12       29.59R
$$

NDZ018>021-031>035-040>046-190000-
SOUTHWEST NORTH DAKOTA

CITY           SKY/WX    TMP DP  RH WIND       PRES   REMARKS
BISMARCK       CLOUDY    44  35  70 NW13      29.63R
DICKINSON      LGT RAIN  38  35  89 NW16G28   29.63R
GARRISON         N/A     34  31  88 NW9       29.62R
HETTINGER ARPT CLEAR     38  25  59 W9        29.66R
$$

NDZ004>008-012>016-024-026-027-054-190000-
NORTHEAST NORTH DAKOTA

CITY           SKY/WX    TMP DP  RH WIND       PRES   REMARKS
GRAND FORKS    CLOUDY    34  33  96 NW10      29.55R
GRND FRKS AFB  MOCLDY    34  33  97 W8        29.56R
DEVILS LAKE    CLOUDY    33  31  92 W15       29.58R
$$

NDZ022-023-025-028>030-036>039-047>053-190000-
SOUTHEAST NORTH DAKOTA

CITY           SKY/WX    TMP DP  RH WIND       PRES   REMARKS
FARGO          CLOUDY    36  33  89 W9        29.59R
JAMESTOWN      CLOUDY    37  32  82 NW10      29.59R
$$





USA.gov is the U.S. government's official web portal to all federal, state and local government web resources and services.